Simultaneous Nadir Overpasses (SNOs) Predictions

Prediction of SNOs between FY3D and NOAA-19 Satellite Orbit:

Table of predicted SNOs for the next 14.0 days since TLE Epoch: 10/28/2022
Index Date (FY3D) Time (FY3D) Lat,Lon (FY3D) SZA (FY3D ) Date (NOAA-19) Time (NOAA-19) Lat,Lon (NOAA-19) SZA (NOAA-19 ) Distance(km) Time Diff (sec)
1 10/31/2022 08:44:08 76.83, 36.37 91.04 10/31/2022 08:43:00 76.81, 33.92 91.13 62.25 68
2 10/31/2022 09:34:59 -77.11,-157.47 88.64 10/31/2022 09:33:48 -77.13,-157.41 88.61 2.66 71
3 10/31/2022 10:25:46 77.12, 9.76 91.40 10/31/2022 10:24:52 77.13, 9.85 91.41 2.27 54
4 10/31/2022 11:16:31 -77.14, 177.01 88.58 10/31/2022 11:15:48 -77.11, 177.03 88.60 3.13 43
5 10/31/2022 12:07:17 77.11, -15.57 91.41 10/31/2022 12:06:52 77.12, -15.71 91.42 3.48 25
6 10/31/2022 12:58:02 -77.13, 151.67 88.56 10/31/2022 12:57:47 -77.14, 151.67 88.55 1.13 15
7 10/31/2022 13:48:49 77.15, -41.09 91.47 10/31/2022 13:48:51 77.14, -41.08 91.47 0.36 2
8 10/31/2022 14:39:34 -77.16, 126.15 88.50 10/31/2022 14:39:46 -77.17, 126.30 88.51 3.68 12
9 10/31/2022 15:30:19 77.14, -66.43 91.48 10/31/2022 15:30:49 77.17, -66.45 91.51 3.98 30
10 10/31/2022 16:21:04 -77.15, 100.81 88.49 10/31/2022 16:21:45 -77.15, 100.74 88.49 1.88 41
11 10/31/2022 17:11:51 77.17, -91.95 91.54 10/31/2022 17:12:49 77.16, -92.01 91.52 1.97 58
12 10/31/2022 18:02:36 -77.18, 75.29 88.43 10/31/2022 18:03:44 -77.18, 75.37 88.45 1.95 68



Historial Predications of SNOs between FY3D and NOAA-19
